Location: Ambatotampy
(18.8181°S, 47.6186°E)
Time: 00:11:15
(UTC+00:00)

Cosmos 1626 - Pass Details

Date: 21 January 2021
Orbit: 489 x 494 km, 82.5° (Epoch: 24 February)

Event Time Altitude Azimuth Distance (km) Brightness Sun altitude
Rises 01:08:45 0° 20° (NNE) 2,548 5.6 -18.0°
Reaches altitude 10° 01:11:07 10° 34° (NE) 1,676 4.8 -17.5°
Maximum altitude 01:14:05 23° 89° (E) 1,073 4.5 -16.9°
Drops below altitude 10° 01:17:05 10° 143° (SE) 1,695 5.8 -16.2°
Sets 01:19:29 0° 157° (SSE) 2,585 6.6 -15.7°
